Weather History for Millinocket, ME

Change the Weather History Date:

Thursday, January 9, 2014

  Actual Average Record
Temperature  
Mean Temperature 9 °F 14 °F  
Max Temperature 19 °F 24 °F 49 °F (1978)
Min Temperature -1 °F 5 °F -27 °F (1976)
Degree Days  
Heating Degree Days 56 51  
Month to date heating degree days 512 447  
Since 1 July heating degree days 3668 3612  
Cooling Degree Days 0 0  
Month to date cooling degree days 0 0  
Year to date cooling degree days 0 0  
Moisture  
Dew Point -1 °F    
Average Humidity 57    
Maximum Humidity 79    
Minimum Humidity 34    
Precipitation  
Precipitation 0.00 in 0.10 in 1.23 in (1998)
Month to date precipitation 1.43 1.12  
Year to date precipitation 1.43 1.12  
Sea Level Pressure  
Sea Level Pressure 30.45 in    
Wind  
Wind Speed 6 mph (West)    
Max Wind Speed 22 mph    
Max Gust Speed 33 mph    
Visibility 10 miles    
Events      
T = Trace of Precipitation, MM = Missing Value Source: NWS Daily Summary

Daily Weather History Graph

Daily Weather History Graph

Search for Another Location

Airport:

Trip Planner

Search our weather history database for the weather conditions in past years. The results will help you decide how hot, cold, wet, or windy it might be!

Date:

Astronomy

Jan. 09, 2014 Rise Set
Actual Time 7:14 AM EST 4:09 PM EST
Civil Twilight 6:40 AM EST 4:43 PM EST
Nautical Twilight 6:03 AM EST 5:20 PM EST
Astronomical Twilight 5:27 AM EST 5:56 PM EST
Moon 11:41 AM EST (1/9) 1:10 AM EST (1/9)
Length of Visible Light 10h 03m
Length of Day
8h 55m
Waxing Gibbous, 66% of the Moon is Illuminated
Jan 9
Waxing Gibbous
Jan 15
Full
Jan 24
Last Quarter
Jan 30
New
Feb 6
First Quarter

Hourly Weather History & Observations

Time (EST) Temp. Windchill Dew Point Humidity Pressure Visibility Wind Dir Wind Speed Gust Speed Precip Events Conditions
12:53 AM 12.9 °F 3.8 °F 1.0 °F 59% 30.29 in 10.0 mi Variable 5.8 mph - N/A   Clear
1:53 AM 12.0 °F 5.9 °F 1.0 °F 61% 30.30 in 10.0 mi WSW 3.5 mph - N/A   Clear
2:53 AM 10.0 °F 3.6 °F 1.0 °F 67% 30.31 in 10.0 mi Variable 3.5 mph - N/A   Clear
3:53 AM 10.0 °F 1.8 °F 1.9 °F 70% 30.31 in 10.0 mi Variable 4.6 mph - N/A   Clear
4:53 AM 10.0 °F 1.8 °F 1.9 °F 70% 30.31 in 10.0 mi Variable 4.6 mph - N/A   Clear
5:53 AM 12.9 °F 3.8 °F 1.9 °F 62% 30.33 in 10.0 mi WSW 5.8 mph - N/A   Partly Cloudy
6:53 AM 10.9 °F 4.7 °F 1.9 °F 67% 30.35 in 10.0 mi SW 3.5 mph - N/A   Scattered Clouds
7:53 AM 10.9 °F 2.9 °F 1.9 °F 67% 30.38 in 10.0 mi SW 4.6 mph - N/A   Mostly Cloudy
8:53 AM 15.1 °F 4.2 °F 3.9 °F 61% 30.41 in 10.0 mi West 8.1 mph - N/A   Mostly Cloudy
9:53 AM 16.0 °F 3.6 °F 1.9 °F 54% 30.43 in 10.0 mi West 10.4 mph 25.3 mph N/A   Mostly Cloudy
10:53 AM 17.1 °F 2.5 °F 1.0 °F 50% 30.44 in 10.0 mi WNW 15.0 mph 26.5 mph N/A   Mostly Cloudy
11:53 AM 18.0 °F 5.4 °F 1.0 °F 48% 30.44 in 10.0 mi West 11.5 mph 26.5 mph N/A   Overcast
12:53 PM 18.0 °F 4.2 °F -2.9 °F 40% 30.45 in 10.0 mi West 13.8 mph 32.2 mph N/A   Clear
1:53 PM 19.0 °F 10.0 °F -4.0 °F 36% 30.48 in 10.0 mi West 6.9 mph - N/A   Clear
2:53 PM 19.0 °F 6.8 °F -5.1 °F 34% 30.50 in 10.0 mi WNW 11.5 mph 25.3 mph N/A   Clear
3:53 PM 17.1 °F 8.7 °F -6.0 °F 36% 30.55 in 10.0 mi WNW 5.8 mph - N/A   Clear
4:53 PM 12.9 °F - -5.1 °F 45% 30.57 in 10.0 mi Calm Calm - N/A   Clear
6:53 PM 12.0 °F 4.1 °F -5.1 °F 46% 30.59 in 10.0 mi WNW 4.6 mph - N/A   Clear
7:53 PM 10.0 °F 0.4 °F -5.1 °F 51% 30.61 in 10.0 mi West 5.8 mph - N/A   Clear
8:53 PM 7.0 °F - -4.0 °F 61% 30.61 in 10.0 mi Calm Calm - N/A   Clear
9:53 PM 3.9 °F -3.4 °F -2.9 °F 73% 30.61 in 10.0 mi South 3.5 mph - N/A   Clear
10:53 PM 1.0 °F - -5.1 °F 75% 30.59 in 10.0 mi Calm Calm - N/A   Clear
11:53 PM -0.0 °F -9.9 °F -5.1 °F 79% 30.57 in 10.0 mi SSE 4.6 mph - N/A   Clear